CZ-3B R/B, 61504

Orbit data source: Space-Track

CZ-3B R/B, 61504 is space debris in HEO originally from a launch on Thu, 10 Oct 2024 UTC launched from the Xichang Space Center, China (XSC). Debris objects in space refer to the collection of defunct objects orbiting the Earth. Examples of debris include non-operational satellites, rocket bodies, and fragments generated from explosions, collisions, or faulty payload assembly.

Loading next visibility...
CZ-3B R/B details
Identifier
61504, 2024-181B
Orbit
HEO
Last TLE update3 weeks ago
Origin
Flag of CNCASC (CN / PRC)
ManufacturerCALT
MissionSpacecraft
Bus & MotorCZ-3A STAGE 3, Unknown motor
Mass~2,800 kg wet, ~2,800 kg dry
Launch date (UTC)
2024-10-10 (2 months ago)
Launch vehicleUnknown
Launch site
Xichang Space Center, China (XSC)
Object type
Payload
Rocket body
Debris
Shape & HBRUnknown
Radar Cross SectionLarge (>1 m²)

Expand to show TLE details & history

TLE from 3 weeks ago
0 CZ-3B R/B
1 61504U 24181B   24334.66049471  .01267368  10382-5  21845-2 0  9999
2 61504  28.3128 203.3678 7007776 212.8130  72.1581  2.70806288  1154
Epoch: 2024-11-29T15:51Z
Definitive object data (Epoch: 2024-11-29T15:51:06.742Z)
Latitude
Longitude-103.39156°
Altitude20,541.666 km
Speed3.359 km/s
True Right ascension13h 33m 38s
True Declination0° 00' 00"
Sunlit
Object was in daylight at TLE epoch
Visualization TLE readout
Latitude-2.73657°
Longitude-120.13273°
Altitude10,789.652 km
Speed5.029 km/s
Apparent Right ascension11h 22m 25s
Apparent Declination-17° 45' 38"
Sunlit
Object is in daylight
Visualization observer readout
Local Sidereal Time16:24:53
Azimuth247.307° WSW
Elevation-0.819°
Doppler factor1
Orbital elements
Apogee altitude30,606.184 km
Perigee altitude128.615 km
Semi-major axis21,745.537 km
Eccentricity0.7007776
Inclination28.3128°
RAAN203.3678°
Arg. of periapsis212.813°
True anomaly147.21334°
Mean anomaly72.1581°
Eccentric anomaly109.90983°
Mean motion0.67684 °/min
BSTAR0.0021845
Orbital period531.88 mins
Loading maneuver chart data...
Loading historical data...
Loading historical data...
Loading historical data...
Loading historical data...
Loading historical data...
Loading historical data...
Loading historical data...
Other satellites on launch #181 in the year 2024 (2024-10-10 UTC)

CZ-3B R/B Visibility forecast

Observer location: undefined°, undefined

Span
Click to sort rows by Start time (UTC) header in descending order
Start Az.
Max El. time (UTC)
Max El. Az.
Max El.
End time (UTC)
End Az.
350 mins2024-12-21 17:40:16.630Z247.195° WSW2024-12-21 23:10:16.630Z224.424° SW38.094°2024-12-21 23:30:16.630Z152.462° SSE
130 mins2024-12-22 15:12:16.630Z222.213° SW2024-12-22 17:22:16.630Z221.944° SW39.645°2024-12-22 17:22:16.630Z221.944° SW
|